GW4240 Weather Reports


Display with metric or nautical units.
time (UTC)temp
F
wind
direction
speed
MPH
gust
MPH
rain 1hr
in
rain 24hr
in
rain mn
in
humidity
%
barometer
mb
20260509002022 59 142 5.0 8.0 0.00 0.00 0.00 70 1021.2
20260509001544 59 102 5.0 9.0 0.00 0.00 0.00 69 1021.2
20260509001022 59 168 4.0 10.0 0.00 0.00 0.00 69 1021.1
20260509000521 59 175 5.0 10.0 0.00 0.00 0.00 69 1021.1
20260509000041 59 160 4.0 11.0 0.00 0.00 0.00 70 1021.2
20260508235522 59 139 5.0 11.0 0.00 0.00 0.00 70 1021.1
20260508235022 59 158 4.0 8.0 0.00 0.00 0.00 69 1021.2
20260508234544 59 188 5.0 8.0 0.00 0.00 0.00 69 1021.2
20260508234022 60 270 3.0 10.0 0.00 0.00 0.00 70 1021.1
20260508233522 60 146 4.0 10.0 0.00 0.00 0.00 70 1021.1
20260508233051 59 169 4.0 9.0 0.00 0.00 0.00 70 1021.1
20260508232525 59 177 4.0 9.0 0.00 0.00 0.00 71 1021.2
20260508232022 59 203 4.0 9.0 0.00 0.00 0.00 71 1021.1
20260508231537 59 148 4.0 8.0 0.00 0.00 0.00 71 1021.1
20260508231022 59 179 4.0 8.0 0.00 0.00 0.00 70 1021.1
20260508230521 59 184 4.0 8.0 0.00 0.00 0.00 71 1021.1
20260508230037 59 174 4.0 11.0 0.00 0.00 0.00 70 1021.1
20260508225521 59 163 4.0 11.0 0.00 0.00 0.00 70 1021.2
20260508225024 59 217 5.0 11.0 0.00 0.00 0.00 71 1021.1
20260508224544 58 129 5.0 13.0 0.00 0.00 0.00 71 1021.0
20260508224023 58 154 5.0 13.0 0.00 0.00 0.00 72 1021.2
20260508223523 58 146 6.0 13.0 0.00 0.00 0.00 70 1021.1
20260508223043 58 189 6.0 12.0 0.00 0.00 0.00 70 1021.1
20260508222522 58 141 5.0 12.0 0.00 0.00 0.00 72 1021.1
20260508222022 58 147 5.0 12.0 0.00 0.00 0.00 71 1021.3
20260508221541 58 206 5.0 12.0 0.00 0.00 0.00 72 1021.3
20260508221030 58 176 5.0 11.0 0.00 0.00 0.00 70 1021.3
20260508220522 58 84 5.0 10.0 0.00 0.00 0.00 72 1021.1
20260508220038 58 148 5.0 10.0 0.00 0.00 0.00 72 1021.1
20260508215521 58 133 6.0 10.0 0.00 0.00 0.00 72 1021.0
20260508215022 59 225 5.0 10.0 0.00 0.00 0.00 72 1021.0
20260508214537 59 119 5.0 11.0 0.00 0.00 0.00 71 1021.1
20260508214021 59 144 5.0 11.0 0.00 0.00 0.00 71 1021.1
20260508213521 59 231 5.0 10.0 0.00 0.00 0.00 71 1021.1
20260508213043 59 134 5.0 11.0 0.00 0.00 0.00 72 1021.1
20260508212524 59 211 5.0 12.0 0.00 0.00 0.00 72 1020.9
20260508212021 58 150 6.0 13.0 0.00 0.00 0.00 72 1021.1
20260508211543 58 180 6.0 13.0 0.00 0.00 0.00 72 1021.0
20260508211022 59 127 5.0 12.0 0.00 0.00 0.00 72 1020.9
20260508210522 59 155 5.0 11.0 0.00 0.00 0.00 71 1020.9
20260508210044 59 200 5.0 13.0 0.00 0.00 0.00 72 1020.9
20260508205524 59 196 6.0 13.0 0.00 0.00 0.00 72 1020.7
20260508205025 58 116 7.0 12.0 0.00 0.00 0.00 71 1020.6
20260508204541 58 173 6.0 12.0 0.00 0.00 0.00 71 1020.6
20260508204023 58 141 6.0 13.0 0.00 0.00 0.00 70 1020.5
20260508203526 58 218 6.0 13.0 0.00 0.00 0.00 71 1020.6
20260508203041 58 173 6.0 13.0 0.00 0.00 0.00 71 1020.6
20260508202522 58 168 6.0 13.0 0.00 0.00 0.00 71 1020.5
20260508202021 58 173 5.0 14.0 0.00 0.00 0.00 72 1020.5
20260508201557 58 181 6.0 14.0 0.00 0.00 0.00 72 1020.4
20260508201021 58 158 5.0 13.0 0.00 0.00 0.00 73 1020.3
20260508200521 58 160 6.0 12.0 0.00 0.00 0.00 74 1020.2
20260508200046 57 141 6.0 13.0 0.00 0.00 0.00 74 1020.2
20260508195523 57 185 6.0 14.0 0.00 0.00 0.00 74 1020.1
20260508195023 57 161 6.0 14.0 0.00 0.00 0.00 75 1020.0
20260508194542 57 148 8.0 14.0 0.00 0.00 0.00 74 1019.9
20260508194022 57 135 6.0 14.0 0.00 0.00 0.00 76 1019.9
20260508193522 57 233 6.0 11.0 0.00 0.00 0.00 75 1020.0
20260508193043 57 218 4.0 12.0 0.00 0.00 0.00 74 1020.0
20260508192522 57 126 6.0 12.0 0.00 0.00 0.00 74 1019.9
20260508192024 57 195 6.0 12.0 0.00 0.00 0.00 75 1019.8
20260508191542 57 240 5.0 13.0 0.00 0.00 0.00 75 1019.7
20260508191022 57 140 6.0 13.0 0.00 0.00 0.00 74 1019.7
20260508190522 57 150 6.0 12.0 0.00 0.00 0.00 75 1019.7
20260508190038 57 250 5.0 11.0 0.00 0.00 0.00 75 1019.6
20260508185522 57 125 4.0 9.0 0.00 0.00 0.00 77 1019.7
20260508185021 57 152 4.0 9.0 0.00 0.00 0.00 78 1019.6
20260508184537 56 195 4.0 10.0 0.00 0.00 0.00 77 1019.6
20260508184021 56 181 4.0 10.0 0.00 0.00 0.00 78 1019.7
20260508183521 56 160 5.0 9.0 0.00 0.00 0.00 78 1019.6
20260508183039 56 155 5.0 9.0 0.00 0.00 0.00 77 1019.5
20260508182523 56 244 4.0 10.0 0.00 0.00 0.00 77 1019.4
20260508182022 56 160 5.0 10.0 0.00 0.00 0.00 77 1019.3
20260508181555 56 155 4.0 9.0 0.00 0.00 0.00 77 1019.2
20260508181022 56 182 3.0 9.0 0.00 0.00 0.00 78 1019.2
20260508180522 56 154 4.0 10.0 0.00 0.00 0.00 78 1019.1
20260508180041 56 167 3.0 10.0 0.00 0.00 0.00 78 1019.0
20260508175522 56 201 4.0 12.0 0.00 0.00 0.00 79 1018.9
20260508175022 56 188 4.0 12.0 0.00 0.00 0.00 78 1019.0
20260508174550 56 210 5.0 12.0 0.00 0.00 0.00 77 1019.0
20260508174021 57 160 6.0 10.0 0.00 0.00 0.00 77 1018.9
20260508173522 57 186 4.0 10.0 0.00 0.00 0.00 78 1018.8
20260508173042 57 124 4.0 10.0 0.00 0.00 0.00 77 1018.8
20260508172521 57 203 4.0 9.0 0.00 0.00 0.00 78 1018.7
20260508172022 57 221 4.0 8.0 0.00 0.00 0.00 79 1018.6
20260508171545 57 99 5.0 8.0 0.00 0.00 0.00 79 1018.5
20260508171023 57 122 4.0 10.0 0.00 0.00 0.00 79 1018.3
20260508170525 57 140 4.0 10.0 0.00 0.00 0.00 77 1018.4
20260508170042 57 132 4.0 10.0 0.00 0.00 0.00 78 1018.3
20260508165523 57 175 5.0 10.0 0.00 0.00 0.00 77 1018.2
20260508165022 57 158 5.0 10.0 0.00 0.00 0.00 79 1018.1
20260508164541 57 219 5.0 10.0 0.00 0.00 0.00 80 1018.0
20260508164022 57 173 5.0 10.0 0.00 0.00 0.00 80 1018.0
20260508163521 57 200 4.0 13.0 0.00 0.00 0.00 82 1018.0
20260508163040 57 200 5.0 13.0 0.00 0.00 0.00 81 1018.0
20260508162522 56 163 5.0 13.0 0.00 0.00 0.00 82 1017.9
20260508162022 56 150 4.0 13.0 0.00 0.00 0.00 84 1017.9
20260508161538 56 174 6.0 13.0 0.00 0.00 0.00 85 1017.8
20260508161023 55 226 7.0 11.0 0.00 0.00 0.00 85 1017.8
20260508160521 55 146 8.0 11.0 0.00 0.00 0.00 85 1017.6
20260508160037 55 146 7.0 10.0 0.00 0.00 0.00 84 1017.6
20260508155521 55 125 6.0 10.0 0.00 0.00 0.00 85 1017.6
20260508155023 55 138 6.0 11.0 0.00 0.00 0.00 85 1017.6
20260508154537 55 127 6.0 11.0 0.00 0.00 0.00 85 1017.6
20260508154022 55 124 6.0 11.0 0.00 0.00 0.00 85 1017.5
20260508153522 55 175 7.0 11.0 0.00 0.00 0.00 85 1017.3
20260508153042 55 104 5.0 12.0 0.00 0.00 0.00 86 1017.5
20260508152525 55 96 5.0 12.0 0.00 0.00 0.00 85 1017.5
20260508152022 54 105 6.0 11.0 0.00 0.00 0.00 86 1017.4
20260508151544 54 126 7.0 10.0 0.00 0.00 0.00 86 1017.3
20260508151023 54 113 5.0 7.0 0.00 0.00 0.00 87 1017.6
20260508150525 54 120 1.0 7.0 0.00 0.00 0.00 88 1017.6
20260508150043 53 134 3.0 7.0 0.00 0.00 0.00 89 1017.6
20260508145522 53 122 3.0 6.0 0.00 0.00 0.00 88 1017.5
20260508145025 53 111 3.0 7.0 0.00 0.00 0.00 88 1017.4
20260508144539 53 139 4.0 7.0 0.00 0.00 0.00 88 1017.3
20260508144021 53 105 3.0 7.0 0.00 0.00 0.00 88 1017.3
20260508143524 53 128 3.0 5.0 0.00 0.00 0.00 88 1017.1
20260508143045 53 114 3.0 5.0 0.00 0.00 0.00 89 1017.0
20260508142522 53 120 3.0 5.0 0.00 0.00 0.00 89 1017.0
20260508142022 53 92 2.0 3.0 0.00 0.00 0.00 89 1017.0
20260508141609 53 86 2.0 4.0 0.00 0.00 0.00 89 1016.9
20260508141022 53 75 1.0 4.0 0.00 0.00 0.00 89 1016.9
20260508140522 53 76 2.0 5.0 0.00 0.00 0.00 89 1016.8
20260508140041 53 78 3.0 5.0 0.00 0.00 0.00 89 1016.8
20260508135523 53 120 3.0 4.0 0.00 0.00 0.00 89 1016.7
20260508135023 52 99 1.0 4.0 0.00 0.00 0.00 90 1016.7
20260508134552 52 89 2.0 4.0 0.00 0.00 0.00 90 1016.7
20260508134022 52 83 2.0 5.0 0.00 0.00 0.00 91 1016.7
20260508133524 52 92 3.0 5.0 0.00 0.00 0.00 91 1016.7
20260508133044 52 130 1.0 4.0 0.00 0.00 0.00 91 1016.7
20260508132522 52 134 1.0 4.0 0.00 0.00 0.00 91 1016.7
20260508132024 52 133 1.0 4.0 0.00 0.00 0.00 91 1016.7
20260508131547 52 115 1.0 3.0 0.00 0.00 0.00 91 1016.7
20260508131023 52 155 1.0 3.0 0.00 0.00 0.00 91 1016.7
20260508130522 52 170 1.0 3.0 0.00 0.00 0.00 90 1016.7
20260508130043 52 179 1.0 3.0 0.00 0.00 0.00 90 1016.7
20260508125522 52 0 0.0 2.0 0.00 0.00 0.00 90 1016.6
20260508125023 52 146 1.0 2.0 0.00 0.00 0.00 91 1016.5
20260508124545 52 115 1.0 2.0 0.00 0.00 0.00 91 1016.5
20260508124024 52 100 0.0 2.0 0.00 0.00 0.00 91 1016.5
20260508123523 52 89 1.0 2.0 0.00 0.00 0.00 90 1016.6
20260508123046 52 83 1.0 2.0 0.00 0.00 0.00 91 1016.5
20260508122539 52 86 1.0 2.0 0.00 0.00 0.00 90 1016.5
20260508122022 52 83 1.0 2.0 0.00 0.00 0.00 91 1016.6
20260508121546 52 91 1.0 2.0 0.00 0.00 0.00 91 1016.5
20260508121022 52 107 1.0 2.0 0.00 0.00 0.00 91 1016.6
20260508120522 52 128 0.0 2.0 0.00 0.00 0.00 91 1016.5
20260508120047 52 89 1.0 2.0 0.00 0.00 0.00 91 1016.4
20260508115522 52 86 0.0 2.0 0.00 0.00 0.00 91 1016.5
20260508115023 52 0 0.0 0.0 0.00 0.00 0.00 91 1016.6
20260508114542 52 0 0.0 0.0 0.00 0.00 0.00 91 1016.4
20260508114022 52 0 0.0 0.0 0.00 0.00 0.00 91 1016.2
20260508113522 52 0 0.0 0.0 0.00 0.00 0.00 91 1016.2
20260508113050 52 0 0.0 0.0 0.00 0.00 0.00 91 1016.2
20260508112522 52 0 0.0 0.0 0.00 0.00 0.00 91 1016.3
20260508112022 52 0 0.0 0.0 0.00 0.00 0.00 91 1016.2
20260508111551 51 0 0.0 0.0 0.00 0.00 0.00 91 1016.2
20260508111025 51 0 0.0 0.0 0.00 0.00 0.00 91 1016.1
20260508110521 51 0 0.0 0.0 0.00 0.00 0.00 91 1016.2
20260508110040 51 0 0.0 1.0 0.00 0.00 0.00 91 1016.3
20260508105522 51 0 0.0 1.0 0.00 0.00 0.00 91 1016.1
20260508105022 51 49 0.0 1.0 0.00 0.00 0.00 91 1016.1
20260508104546 51 49 0.0 1.0 0.00 0.00 0.00 91 1016.1
20260508104024 51 39 1.0 1.0 0.00 0.00 0.00 91 1016.1
20260508103521 52 39 0.0 1.0 0.00 0.00 0.00 90 1016.2
20260508103041 52 39 1.0 1.0 0.00 0.00 0.00 90 1016.1
20260508102523 52 39 0.0 1.0 0.00 0.00 0.00 90 1016.2
20260508102021 52 30 0.0 1.0 0.00 0.00 0.00 90 1016.2
20260508101542 52 30 1.0 1.0 0.00 0.00 0.00 90 1016.2
20260508101024 52 30 1.0 2.0 0.00 0.00 0.00 90 1016.1
20260508100521 52 6 1.0 2.0 0.00 0.00 0.00 90 1016.1
20260508100037 52 18 0.0 1.0 0.00 0.00 0.00 90 1016.1
20260508095525 52 0 0.0 0.0 0.00 0.00 0.00 89 1016.1
20260508095022 52 0 0.0 2.0 0.00 0.00 0.00 89 1016.1
20260508094537 52 0 0.0 2.0 0.00 0.00 0.00 89 1015.9
20260508094024 52 50 1.0 2.0 0.00 0.00 0.00 89 1016.0
20260508093521 52 49 1.0 1.0 0.00 0.00 0.00 89 1016.0
20260508093044 52 49 1.0 1.0 0.00 0.00 0.00 88 1015.9
20260508092521 52 49 0.0 2.0 0.00 0.00 0.00 88 1015.9
20260508092021 52 359 1.0 2.0 0.00 0.00 0.00 88 1016.0
20260508091551 53 20 0.0 1.0 0.00 0.00 0.00 88 1016.0
20260508091024 53 53 1.0 2.0 0.00 0.00 0.00 88 1015.9
20260508090524 53 54 1.0 2.0 0.00 0.00 0.00 87 1015.8
20260508090043 53 54 1.0 2.0 0.00 0.00 0.00 87 1015.9
20260508085520 53 53 1.0 2.0 0.00 0.00 0.00 87 1015.9
20260508085022 53 0 0.0 2.0 0.00 0.00 0.00 87 1016.0
20260508084541 53 77 0.0 2.0 0.00 0.00 0.00 87 1016.1
20260508084022 54 83 1.0 3.0 0.00 0.00 0.00 87 1016.0
20260508083520 54 86 1.0 3.0 0.00 0.00 0.00 86 1016.1
20260508083048 54 93 1.0 3.0 0.00 0.00 0.00 86 1016.1
20260508082521 54 94 1.0 2.0 0.00 0.00 0.00 86 1016.0
20260508082024 54 51 0.0 2.0 0.00 0.00 0.00 86 1016.0
20260508081547 54 51 1.0 2.0 0.00 0.00 0.00 86 1016.1
20260508081025 54 51 1.0 2.0 0.00 0.00 0.00 85 1016.1
20260508080521 55 0 0.0 0.0 0.00 0.00 0.00 85 1016.1
20260508080041 55 0 0.0 0.0 0.00 0.00 0.00 84 1016.2
20260508075524 55 0 0.0 0.0 0.00 0.00 0.00 84 1016.3
20260508075026 55 0 0.0 0.0 0.00 0.00 0.00 84 1016.1
20260508074549 55 0 0.0 0.0 0.00 0.00 0.00 84 1016.2
20260508074024 55 0 0.0 0.0 0.00 0.00 0.00 84 1016.3
20260508073521 55 0 0.0 2.0 0.00 0.00 0.00 85 1016.3
20260508073038 55 0 1.0 2.0 0.00 0.00 0.00 85 1016.2
20260508072521 55 135 1.0 2.0 0.00 0.00 0.00 85 1016.3
20260508072022 55 129 1.0 2.0 0.00 0.00 0.00 85 1016.3
20260508071538 55 0 0.0 2.0 0.00 0.00 0.00 85 1016.3
20260508071021 55 107 1.0 2.0 0.00 0.00 0.00 86 1016.4
20260508070522 54 105 1.0 2.0 0.00 0.00 0.00 86 1016.3
20260508070043 54 101 1.0 2.0 0.00 0.00 0.00 86 1016.3
20260508065521 54 169 0.0 3.0 0.00 0.00 0.00 87 1016.5
20260508065022 54 0 1.0 3.0 0.00 0.00 0.00 87 1016.5
20260508064541 53 146 1.0 3.0 0.00 0.00 0.00 88 1016.5
20260508064024 53 176 1.0 2.0 0.00 0.00 0.00 90 1016.5
20260508063521 52 0 0.0 2.0 0.00 0.00 0.00 90 1016.5
20260508063038 52 0 0.0 2.0 0.00 0.00 0.00 91 1016.5
20260508062526 52 281 1.0 2.0 0.00 0.00 0.00 90 1016.5
20260508062022 52 0 0.0 0.0 0.00 0.00 0.00 91 1016.4
20260508061538 52 0 0.0 1.0 0.00 0.00 0.00 91 1016.4
20260508061022 51 0 0.0 2.0 0.00 0.00 0.00 92 1016.4
20260508060521 51 302 0.0 2.0 0.00 0.00 0.00 92 1016.5
20260508060046 51 0 0.0 0.0 0.00 0.00 0.00 91 1016.4
20260508055528 51 0 0.0 0.0 0.00 0.00 0.00 91 1016.5
20260508055021 51 0 0.0 0.0 0.00 0.00 0.00 91 1016.4
20260508054542 51 0 0.0 0.0 0.00 0.00 0.00 90 1016.4
20260508054021 52 0 0.0 1.0 0.00 0.00 0.00 90 1016.3
20260508053524 52 0 0.0 1.0 0.00 0.00 0.00 90 1016.4
20260508053046 52 307 1.0 2.0 0.00 0.00 0.00 90 1016.3
20260508052521 52 306 1.0 2.0 0.00 0.00 0.00 89 1016.3
20260508052020 53 0 0.0 1.0 0.00 0.00 0.00 89 1016.3
20260508051542 53 8 0.0 1.0 0.00 0.00 0.00 89 1016.3
20260508051022 53 0 0.0 1.0 0.00 0.00 0.00 88 1016.2
20260508050522 53 6 0.0 1.0 0.00 0.00 0.00 89 1016.3
20260508050037 53 0 0.0 1.0 0.00 0.00 0.00 89 1016.4
20260508045529 54 280 0.0 1.0 0.00 0.00 0.00 88 1016.4
20260508045021 54 267 0.0 1.0 0.00 0.00 0.00 88 1016.4
20260508044537 54 266 0.0 1.0 0.00 0.00 0.00 87 1016.4
20260508044021 54 216 1.0 1.0 0.00 0.00 0.00 86 1016.5
20260508043530 55 0 0.0 1.0 0.00 0.00 0.00 86 1016.5
20260508043046 55 0 0.0 3.0 0.00 0.00 0.00 85 1016.6
20260508042520 55 0 0.0 3.0 0.00 0.00 0.00 85 1016.6
20260508042022 55 180 1.0 3.0 0.00 0.00 0.00 84 1016.7
20260508041541 55 227 1.0 3.0 0.00 0.00 0.00 84 1016.6
20260508041024 55 187 1.0 3.0 0.00 0.00 0.00 84 1016.6
20260508040525 55 193 1.0 3.0 0.00 0.00 0.00 84 1016.6
20260508040042 55 187 2.0 4.0 0.00 0.00 0.00 84 1016.6
20260508035522 55 203 2.0 4.0 0.00 0.00 0.00 84 1016.6
20260508035025 56 161 0.0 2.0 0.00 0.00 0.00 84 1016.5
20260508034537 56 153 0.0 4.0 0.00 0.00 0.00 84 1016.5
20260508034027 56 190 1.0 4.0 0.00 0.00 0.00 83 1016.5
20260508033524 56 177 1.0 4.0 0.00 0.00 0.00 83 1016.5
20260508033039 57 223 2.0 4.0 0.00 0.00 0.00 82 1016.4
20260508032525 57 191 2.0 4.0 0.00 0.00 0.00 80 1016.5
20260508032025 58 237 1.0 3.0 0.00 0.00 0.00 80 1016.5
20260508031537 58 210 1.0 3.0 0.00 0.00 0.00 79 1016.4
20260508031024 59 155 1.0 3.0 0.00 0.00 0.00 78 1016.4
20260508030521 59 160 1.0 3.0 0.00 0.00 0.00 77 1016.5
20260508030045 59 162 1.0 4.0 0.00 0.00 0.00 76 1016.5
20260508025521 60 141 1.0 4.0 0.00 0.00 0.00 76 1016.6
20260508025021 60 139 2.0 5.0 0.00 0.00 0.00 75 1016.6
20260508024541 60 202 1.0 5.0 0.00 0.00 0.00 75 1016.6
20260508024021 60 138 2.0 5.0 0.00 0.00 0.00 76 1016.7
20260508023521 60 154 2.0 3.0 0.00 0.00 0.00 76 1016.7
20260508023039 60 189 1.0 3.0 0.00 0.00 0.00 75 1016.8
20260508022522 61 221 1.0 4.0 0.00 0.00 0.00 75 1016.8
20260508022023 60 352 1.0 5.0 0.00 0.00 0.00 75 1016.7
20260508021545 60 208 2.0 5.0 0.00 0.00 0.00 75 1016.7
20260508021022 60 168 2.0 4.0 0.00 0.00 0.00 76 1016.8
20260508020520 60 198 1.0 4.0 0.00 0.00 0.00 78 1016.7
20260508020037 60 266 2.0 6.0 0.00 0.00 0.00 77 1016.8
20260508015520 61 155 2.0 6.0 0.00 0.00 0.00 75 1016.8
20260508015022 61 217 1.0 4.0 0.00 0.00 0.00 75 1017.0
20260508014537 61 154 1.0 6.0 0.00 0.00 0.00 74 1016.9
20260508014022 62 207 2.0 6.0 0.00 0.00 0.00 73 1017.0
20260508013521 62 161 2.0 5.0 0.00 0.00 0.00 71 1017.0
20260508013045 62 5 2.0 5.0 0.00 0.00 0.00 71 1017.0
20260508012521 62 155 2.0 5.0 0.00 0.00 0.00 72 1017.0
20260508012021 62 158 2.0 4.0 0.00 0.00 0.00 72 1017.1
20260508011542 62 170 1.0 4.0 0.00 0.00 0.00 73 1017.1
20260508011021 62 141 1.0 3.0 0.00 0.00 0.00 75 1017.3
20260508010521 62 124 1.0 3.0 0.00 0.00 0.00 75 1017.3
20260508010040 61 217 1.0 4.0 0.00 0.00 0.00 76 1017.4
20260508005525 62 165 1.0 4.0 0.00 0.00 0.00 75 1017.4
20260508005024 62 141 2.0 4.0 0.00 0.00 0.00 74 1017.5
20260508004541 62 182 1.0 5.0 0.00 0.00 0.00 75 1017.5
20260508004021 62 167 2.0 5.0 0.00 0.00 0.00 75 1017.5
20260508003520 61 217 1.0 8.0 0.00 0.00 0.00 76 1017.6
20260508003048 61 194 2.0 8.0 0.00 0.00 0.00 77 1017.7
20260508002520 61 303 2.0 8.0 0.00 0.00 0.00 76 1017.6